Location: Schuline
(38.0895°N, 89.7790°W)
Time: 01:12:24
(UTC+00:00)

Daily predictions for brighter satellites

Satellite Brightness Start Highest point End
(mag) Time Altitude Azimuth Time Altitude Azimuth Time Altitude Azimuth
Cosmos 1570 Rocket 4.1 01:33:49 10° NNW 01:39:03 65° ENE 01:44:15 10° SSE
Spot 2 4.0 01:35:14 10° SSE 01:39:12 60° ENE 01:43:11 10° N
H-2A R/B 2.5 01:36:46 10° NNE 01:40:35 37° E 01:44:25 10° SSE
Cosmos 2369 4.4 01:36:19 10° SSE 01:41:11 31° ESE 01:46:05 10° NE
Cosmos 1814 Rocket 4.0 01:36:33 10° NNW 01:41:42 88° WSW 01:46:50 10° SSE
Cosmos 1486 Rocket 4.4 01:37:43 10° S 01:42:44 45° ESE 01:47:45 10° NNE
Cosmos 1328 Rocket 3.8 01:38:45 10° SSE 01:42:53 49° E 01:47:04 10° NNE
MetOp-A 3.4 01:44:53 10° SSE 01:48:54 69° ENE 01:52:46 10° N
Cosmos 1697 Rocket 2.7 01:43:57 10° S 01:49:32 67° ESE 01:55:10 10° NNE
Cosmos 2098 Rocket 4.4 01:49:15 10° NNW 01:51:51 26° W 01:54:18 10° SSW
Cosmos 405 3.8 01:50:25 10° NNE 01:53:32 32° ENE 01:56:35 10° SE
Cosmos 389 Rocket 4.3 01:52:22 10° NNE 01:54:39 16° ENE 01:56:49 11° ESE
Cosmos 2360 4.2 01:50:30 10° SSW 01:56:08 72° ESE 02:01:48 10° NNE
CZ-4B R/B 2.0 01:54:42 10° NNE 01:57:34 31° E 02:00:22 10° SSE
ATLAS 2AS CENTAUR R/B 3.4 01:53:24 10° S 02:00:31 40° ESE 02:07:32 10° NE
Cosmos 1515 4.2 01:57:38 10° SSE 02:01:09 38° E 02:04:41 10° NNE
Cosmos 1151 Rocket 3.7 01:58:14 10° SSW 02:02:26 57° W 02:06:38 10° N
Cosmos 2297 Rocket 2.3 01:57:24 10° NNW 02:03:05 85° WSW 02:08:43 10° SSE
USA 186 3.1 02:01:00 10° SSW 02:03:09 27° W 02:05:15 10° NW
JB-3 4.4 02:00:02 10° NNE 02:04:12 74° ESE 02:08:19 10° S
NOSS 3-4 (A) 3.9 01:59:51 10° SW 02:05:26 62° NW 02:11:25 10° NNE
NOSS 3-4 (C) 3.9 01:59:52 10° SW 02:05:30 63° NW 02:11:30 10° NNE
OBJECT-B 3.2 02:04:04 10° SW 02:06:16 19° W 02:08:28 10° NW
COBE Rocket 4.0 02:01:31 10° SSE 02:06:38 89° ENE 02:11:39 10° N
Cosmos 1340 2.9 02:07:09 10° SSE 02:10:43 46° E 02:14:19 10° NNE
CZ-4 R/B 4.2 02:08:36 10° SW 02:10:49 14° W 02:13:04 10° WNW
Cosmos 1503 Rocket 4.3 02:07:02 10° S 02:12:04 48° ESE 02:17:09 10° NNE
Cosmos 1666 Rocket 3.9 02:09:29 10° NNW 02:13:52 67° W 02:18:15 10° S
Resurs 1-3 3.7 02:09:51 10° S 02:14:13 78° W 02:18:37 10° NNW
SJ-6B 4.1 02:13:19 10° SSW 02:16:53 37° W 02:20:25 10° NNW
H-2A R/B 3.8 02:13:40 10° S 02:17:48 40° W 02:21:50 10° NNW
Cosmos 1315 Rocket 3.5 02:15:17 10° NNW 02:19:16 56° W 02:23:10 10° S
SJ 16-02 2.1 02:15:43 11° SSE 02:19:17 31° E 02:23:10 10° NE
SL-16 R/B 3.9 02:18:47 13° ESE 02:19:28 13° E 02:21:55 10° ENE
Cosmos 1072 Rocket 4.5 02:14:02 10° S 02:20:02 64° E 02:26:05 10° NNE
Cosmos 1633 Rocket 3.4 02:17:29 10° NNW 02:21:50 67° W 02:26:07 10° S
SPOT 1/Viking Rocket 3.7 02:22:07 15° SSE 02:26:13 56° ENE 02:31:16 10° N
Cosmos 1743 2.9 02:24:17 10° N 02:27:59 51° E 02:30:10 22° SSE
Cosmos 1470 Rocket 3.5 02:29:09 10° N 02:33:30 88° WSW 02:37:01 15° S
Meteor 1-27 Rocket 3.8 02:28:38 10° S 02:34:23 85° W 02:40:17 10° N
CENTAUR R/B 4.5 02:29:36 10° NW 02:37:17 37° WSW 02:45:19 10° S
OAO 3 Rocket 3.5 02:34:03 10° W 02:38:50 53° S 02:41:32 24° SE
Cosmos 2278 3.8 02:34:14 10° S 02:39:40 51° ESE 02:45:09 10° NNE
Cosmos 2219 3.4 02:37:06 10° NNW 02:42:41 67° WSW 02:47:00 17° S
Resurs 01 Rocket 1.7 02:39:24 17° S 02:42:45 79° WSW 02:47:11 10° NNW
Cosmos 1515 Rocket 4.0 02:39:17 10° SSW 02:43:35 63° W 02:47:58 10° N
Ariane Rocket 2.9 02:40:48 20° SSE 02:44:22 79° ENE 02:49:27 10° N
SPOT 5 4.1 02:43:22 21° ESE 02:45:45 30° ENE 02:50:13 10° N
Terra 3.5 02:44:34 16° E 02:46:12 19° ENE 02:49:31 10° NNE
Cosmos 2034 Rocket 4.0 02:42:41 12° S 02:48:32 70° E 02:54:50 10° NNE
Cosmos 2082 3.7 02:43:44 10° NNW 02:49:21 69° ENE 02:52:31 27° SE
ISS -1.2 02:48:46 10° NNW 02:50:52 15° NNE 02:52:57 10° ENE
Cosmos 921 Rocket 3.2 02:46:26 10° N 02:50:53 59° ENE 02:52:48 32° SE
Cosmos 2263 Rocket 3.1 02:46:36 10° N 02:51:41 35° ENE 02:54:16 23° ESE
Cosmos 1378 4.1 02:52:06 28° E 02:52:07 28° E 02:55:17 10° NNE
Meteor 1-11 Rocket 4.3 02:47:03 10° NNW 02:52:55 60° W 02:58:21 12° S
CARTOSAT-1 3.6 02:54:34 33° SE 02:56:23 64° ENE 03:00:40 10° N
Cosmos 2228 Rocket 3.2 02:58:45 32° SSE 03:00:40 57° E 03:05:08 10° NNE
Cosmos 1869 Rocket 3.9 02:57:31 10° N 03:01:53 50° E 03:03:11 37° SE
Okean 1 3.2 03:02:18 27° S 03:04:22 87° W 03:08:24 10° N
Cosmos 2344 4.0 02:58:13 10° SW 03:05:47 61° NW 03:13:13 10° NNE
Cosmos 1536 3.9 03:02:28 10° NNW 03:06:15 40° W 03:08:52 18° SSW
NOSS 2-1 (C) 3.5 03:07:58 38° ENE 03:07:58 38° ENE 03:10:13 10° NE
RESURS DK-1 2.6 03:05:25 10° SSW 03:09:31 70° WNW 03:13:38 10° NNE
Cosmos 2227 Rocket 3.5 03:05:04 10° NW 03:10:06 34° WSW 03:14:18 14° SSW
SL-4 R/B 2.4 03:08:33 10° WNW 03:12:58 57° SW 03:13:57 45° S
Cosmos 1980 Rocket 3.2 03:09:19 10° SW 03:14:43 48° WNW 03:20:12 10° N
USA 245 4.4 03:12:37 30° SSE 03:15:41 89° WSW 03:22:04 10° NNW
NOSS 2-1 (D) 3.2 03:18:12 52° NE 03:18:12 52° NE 03:20:43 10° NE
Cosmos 1777 Rocket 4.0 03:13:04 14° SSW 03:17:35 83° WNW 03:22:50 10° NNE
Cosmos 1809 Rocket 4.5 03:11:49 10° N 03:17:57 79° W 03:21:31 27° S
Spot 2 Rocket 3.5 03:16:25 40° SE 03:18:02 62° ENE 03:23:01 10° N
SPOT 3 Rocket 3.6 03:18:44 34° S 03:21:03 76° WSW 03:26:13 10° NNW
Cosmos 1707 Rocket 3.7 03:22:35 50° ESE 03:22:58 52° E 03:27:16 10° NNE
Cosmos 2322 Rocket 2.8 03:23:15 35° ESE 03:23:22 35° ESE 03:28:23 10° NE
Cosmos 773 Rocket 3.9 03:18:58 10° NNW 03:24:12 86° ENE 03:25:48 45° SSE
ARIANE 5 R/B 3.5 03:23:46 33° E 03:24:16 34° ENE 03:28:20 10° N
BREEZE-M DEB (TANK) 4.1 03:22:44 10° NNW 03:24:39 19° NNE 03:26:20 14° ENE
USA 215 4.2 03:21:23 10° ENE 03:25:35 27° ESE 03:25:35 27° ESE
Cosmos 2333 Rocket 4.4 03:31:12 10° ENE 03:31:12 10° ENE 03:31:20 10° ENE
Meteor 2-4 Rocket 3.7 03:28:29 38° S 03:30:49 75° E 03:36:30 10° NNE
Cosmos 44 Rocket 3.7 03:30:59 10° NNW 03:35:31 46° NE 03:36:16 42° E
Cosmos 1975 2.8 03:32:17 10° N 03:36:17 67° ENE 03:36:17 67° ENE
Helios 1A Rocket 3.3 03:43:33 50° SW 03:43:58 53° W 03:47:54 10° NNW
Cosmos 2219 Rocket 4.4 03:49:49 11° ENE 03:49:49 11° ENE 03:50:04 10° ENE
Cosmos 158 Rocket 3.9 03:42:33 10° NNW 03:47:45 81° ENE 03:48:35 63° SE
Cosmos 1092 Rocket 4.0 03:42:25 10° N 03:48:36 79° W 03:50:43 43° S
Cosmos 1634 Rocket 4.0 03:48:30 36° SSW 03:51:13 80° W 03:57:26 10° N
ATLAS 2AS CENTAUR R/B 3.9 03:43:55 10° WSW 03:51:24 47° NW 03:58:42 10° NNE
USA 81 4.0 03:51:32 56° S 03:52:43 86° W 03:58:00 10° N
ERS-1 Rocket 3.0 03:52:28 55° SSW 03:53:25 70° WSW 03:58:28 10° NNW
Cosmos 2227 4.2 03:48:54 10° NNW 03:54:41 77° ENE 03:55:45 59° SE
Cosmos 2142 Rocket 4.5 03:54:38 51° SSE 03:56:16 73° E 04:02:39 10° N
Cosmos 1733 Rocket 3.2 03:51:52 10° N 03:56:04 65° ENE 03:56:04 65° ENE
Meteor 2-15 Rocket 4.3 03:56:14 55° SSE 03:57:31 73° E 04:03:35 10° NNE
SJ 16-02 3.8 03:54:36 10° WSW 03:57:52 20° WNW 04:01:10 10° NNW
CZ-2C R/B 4.5 03:54:24 10° N 03:59:02 52° WNW 04:00:44 34° SW
SL-16 R/B 2.3 04:00:33 38° SW 04:02:47 75° WNW 04:08:29 10° NNE
Cosmos 2237 4.1 04:04:12 66° SSE 04:04:54 76° ESE 04:10:38 10° NNE
Cosmos 1538 Rocket 3.8 04:00:07 10° NNW 04:05:22 81° ENE 04:05:40 77° ESE
Cosmos 1862 Rocket 3.6 04:05:58 80° NW 04:05:58 80° NW 04:10:16 10° N
Cosmos 1441 Rocket 4.3 04:10:50 40° N 04:10:50 40° N 04:13:17 10° N
Geosat 4.5 04:09:12 45° ENE 04:09:36 46° ENE 04:14:24 10° NNW
Cosmos 1346 Rocket 3.9 04:11:56 39° W 04:12:04 39° WNW 04:15:52 10° N
Cosmos 2026 Rocket 4.3 04:07:21 10° NNW 04:13:24 58° W 04:15:15 42° SW
Cosmos 1655 Rocket 4.5 04:12:35 10° N 04:18:29 43° ENE 04:18:59 42° E
ATLAS 3B R/B 2.9 04:12:51 10° NNW 04:20:18 73° ENE 04:22:21 51° SE
Cosmos 1937 Rocket 4.3 04:23:07 40° ENE 04:23:07 40° ENE 04:26:59 10° NNE
Cosmos 923 Rocket 4.5 04:18:17 10° N 04:23:29 50° ENE 04:23:29 50° ENE
Terra 2.6 04:23:27 42° WSW 04:23:36 42° W 04:28:08 10° NNW
SPOT 5 4.3 04:22:34 29° WSW 04:23:40 31° W 04:28:17 10° NW
Cosmos 2360 Rocket 2.0 04:27:32 78° E 04:27:32 78° E 04:33:04 10° NNE
ISS -1.3 04:24:42 10° NW 04:25:58 21° NW 04:25:58 21° NW
Meteor 1-13 Rocket 4.1 04:34:10 81° SW 04:34:23 83° W 04:39:58 10° N
Cosmos 2263 Rocket 3.4 04:30:42 10° NW 04:35:27 29° WSW 04:35:57 29° WSW
Cosmos 990 Rocket 4.4 04:37:51 52° W 04:38:29 56° WNW 04:43:38 10° N
Okean 1-7 4.0 04:44:36 46° N 04:44:36 46° N 04:47:42 10° N
Cosmos 1680 Rocket 3.9 04:39:48 10° N 04:44:38 56° NE 04:44:38 56° NE
Cosmos 2266 Rocket 3.8 04:43:13 10° N 04:49:27 79° E 04:49:37 78° ESE
Cosmos 1898 Rocket 3.8 04:52:43 64° WNW 04:52:43 64° WNW 04:58:00 10° NNE
Iridium 4 Rocket 3.8 04:49:01 10° N 04:52:48 58° NNE 04:52:48 58° NNE
Cosmos 1818 4.2 04:49:17 10° NNW 04:54:34 47° NE 04:54:36 47° NE
Meteor 1-12 Rocket 4.3 04:54:31 10° NNW 05:00:19 77° W 05:00:19 77° W
ATLAS CENTAUR R/B 2.9 04:57:51 10° NNW 05:01:48 36° NE 05:01:48 36° NE
Cosmos 2322 Rocket 3.7 05:04:59 22° W 05:07:22 30° WNW 05:12:18 10° N
USA 215 3.4 05:03:41 10° NE 05:10:13 72° NW 05:12:52 39° WSW
Cosmos 2322 4.0 05:13:04 60° NE 05:13:04 60° NE 05:17:50 10° NNE
Cosmos 2333 Rocket 2.3 05:13:10 73° NNW 05:13:10 73° NNW 05:18:24 10° NNE
ADEOS Rocket 3.6 05:13:15 39° ENE 05:13:24 39° ENE 05:18:50 10° N
Cosmos 1844 Rocket 2.9 05:09:43 10° NNW 05:14:32 63° WNW 05:14:32 63° WNW
Cosmos 2219 Rocket 2.4 05:31:30 67° NNW 05:31:30 67° NNW 05:36:29 10° NNE
Cosmos 1844 4.3 05:34:16 10° NNW 05:38:56 49° WNW 05:38:56 49° WNW
Cosmos 1553 Rocket 4.1 05:42:09 62° ENE 05:42:09 62° ENE 05:47:49 10° NNE
USA 267 4.2 05:38:54 21° E 05:42:51 44° NE 05:48:58 10° NW
Cosmos 1244 Rocket 4.5 05:40:45 10° N 05:46:51 78° NE 05:46:51 78° NE
ALOS 2 4.1 05:51:33 32° NW 05:51:33 32° NW 05:54:04 10° NNW
Nadezhda 2 Rocket 4.4 05:44:01 10° N 05:49:49 80° NNE 05:49:49 80° NNE
NOSS 0 Rocket 4.2 05:56:55 58° ENE 05:56:55 58° ENE 06:02:21 10° NNE
Okean 2 Rocket 4.4 05:54:34 10° N 05:57:28 38° N 05:57:28 38° N
Cosmos 2237 Rocket 3.1 06:02:09 41° ENE 06:02:09 41° ENE 06:06:23 10° NE
COSMOS 2428 3.2 06:05:46 54° NW 06:05:46 54° NW 06:11:05 10° NNE
Cosmos 1953 4.5 06:05:13 10° NNE 06:07:09 23° NNE 06:07:09 23° NNE
ATLAS 3B R/B 4.3 06:04:53 10° WNW 06:09:35 22° W 06:09:35 22° W
Resurs 1-4 Rocket 4.5 06:08:33 10° ENE 06:10:14 12° E 06:10:14 12° E
CZ-4C R/B 3.1 06:05:11 10° NNW 06:12:47 80° ENE 06:14:45 57° SE
NOSS 3-1 (A) 4.2 06:07:48 10° NNW 06:15:33 73° NE 06:18:26 46° SE
Cosmos 1867 4.5 06:16:12 41° WNW 06:16:22 41° NW 06:21:33 10° NNE
NOSS 3-1 (C) 4.1 06:14:51 10° NW 06:22:40 68° WSW 06:23:27 64° SSW
Cosmos 1745 Rocket 3.9 06:17:29 10° N 06:23:37 76° ENE 06:23:37 76° ENE
Okean 1 Rocket 4.3 06:30:08 10° N 06:33:02 40° N 06:33:02 40° N
Cosmos 2278 Rocket 2.4 06:30:37 10° NNW 06:36:05 68° NE 06:36:05 68° NE
Cosmos 371 Rocket 4.1 06:41:23 48° NNW 06:41:23 48° NNW 06:45:08 10° N
ATLAS CENTAUR R/B 4.2 06:37:11 10° WNW 06:37:47 13° WNW 06:37:47 13° WNW
Lacrosse 5 2.9 06:43:42 40° ENE 06:43:42 40° ENE 06:47:08 10° NE
Cosmos 883 Rocket 4.4 06:42:27 82° ESE 06:42:33 82° E 06:48:54 10° N
USA 32 4.3 06:44:30 65° NE 06:44:30 65° NE 06:49:04 10° N
ATLAS 5 CENTAUR R/B 2.8 06:37:00 10° NW 06:45:39 69° N 06:45:39 69° N
Cosmos 304 Rocket 4.4 06:49:36 53° N 06:49:36 53° N 06:53:20 10° NNE
SL-16 R/B 3.1 06:49:47 37° E 06:49:47 37° E 06:54:37 10° NE
Cosmos 1980 4.0 06:53:24 58° WNW 06:53:24 58° WNW 06:58:49 10° NNE
SME Rocket 4.3 06:58:11 37° ENE 06:58:11 37° ENE 07:02:26 10° N
ADEOS Rocket 4.3 07:00:12 23° WNW 07:00:12 23° WNW 07:03:46 10° NW
Meteor 2-10 Rocket 3.7 06:55:47 10° N 07:01:19 71° ENE 07:01:19 71° ENE
SL-16 R/B 4.0 07:01:09 18° ESE 07:04:54 32° ENE 07:10:19 10° N
MOZ.5/SAFIR/RUBIN 5/SL-8 4.1 07:09:27 63° NE 07:09:27 63° NE 07:13:41 10° N
Cosmos 1455 Rocket 3.8 07:07:12 10° N 07:10:48 52° NNE 07:10:48 52° NNE
EO 1 Delta rocket 4.1 07:08:46 10° N 07:13:11 70° NW 07:13:11 70° NW
Meteor 1-24 Rocket 3.8 07:14:10 62° ESE 07:14:25 63° E 07:19:50 10° NNE
Cosmos 1709 Rocket 3.9 07:11:55 10° NNW 07:17:58 65° W 07:18:05 65° W
Cosmos 2315 Rocket 4.1 07:17:55 60° WSW 07:18:23 61° W 07:24:43 10° N
COSMOS 2455 3.5 07:18:09 41° ESE 07:18:37 42° ESE 07:24:15 10° NE
Cosmos 1975 Rocket 3.8 07:25:12 49° NNW 07:25:12 49° NNW 07:28:40 10° N
USA 267 3.3 07:26:11 54° WSW 07:26:11 54° WSW 07:32:08 10° NW
CZ-2D R/B 2.2 07:20:32 10° NNE 07:25:50 62° ESE 07:26:09 60° ESE
Cosmos 1025 Rocket 3.6 07:27:37 53° N 07:27:37 53° N 07:30:59 10° N
Lacrosse 5 rocket 2.2 07:36:40 45° NNE 07:36:40 45° NNE 07:39:36 10° NE
USA 229 DEB 4.2 07:32:33 10° NW 07:39:42 47° WSW 07:40:07 46° SW
USA 229 4.2 07:32:39 10° NW 07:39:48 47° WSW 07:40:15 47° SW
Meteor 2-5 Rocket 3.7 07:40:07 62° WSW 07:40:35 65° W 07:46:15 10° N
Cosmos 2237 Rocket 3.7 07:43:57 22° WNW 07:45:12 24° WNW 07:49:47 10° N
UNK 4.2 07:48:50 44° ESE 07:49:54 55° ENE 07:54:25 10° N
CZ-4 R/B 3.7 07:45:19 10° N 07:49:56 74° WNW 07:49:56 74° WNW
Resurs 1-4 Rocket 2.0 07:45:28 10° N 07:50:44 75° WNW 07:51:19 67° SW
EO 1 Del DPAF 4.5 07:49:44 10° NNE 07:52:35 32° E 07:52:35 32° E
NOSS 3-3 (A) 4.4 07:52:29 37° SE 07:53:41 42° ESE 07:59:21 10° NE
NOSS 3-3 (C) 4.4 07:52:34 36° SE 07:53:47 41° ESE 07:59:26 10° NE
Nadezhda 1 Rocket 4.1 07:53:45 42° SSE 07:56:00 71° E 08:02:16 10° NNE
Cosmos 1544 Rocket 3.5 07:53:45 10° N 07:57:54 73° WNW 07:57:54 73° WNW
CZ-4C R/B 4.3 07:55:01 10° WNW 07:59:52 23° W 07:59:52 23° W
IDEFIX/ARIANE 42P 2.9 07:57:30 10° NNE 08:02:43 59° E 08:04:17 42° SSE
Cosmos 1943 Rocket 2.1 07:57:27 10° NNW 08:03:09 85° WSW 08:05:08 43° SSE
ADEOS II 2.1 07:58:48 10° NNE 08:04:04 75° ESE 08:05:23 51° S
Meteor 1-28 Rocket 4.0 08:06:01 42° ESE 08:06:41 48° ENE 08:10:17 10° N
Cosmos 2297 3.7 08:04:51 10° NNW 08:10:38 86° ENE 08:13:59 26° SSE
MOS 1 Rocket 3.0 08:10:22 63° SSE 08:11:03 83° ENE 08:15:20 10° N
IRS-1D 4.5 08:08:45 10° NNE 08:13:48 43° E 08:16:21 26° SSE
Cosmos 2278 Rocket 4.2 08:16:44 10° WNW 08:17:53 13° WNW 08:17:53 13° WNW
Lacrosse 5 3.5 08:22:52 18° WNW 08:25:23 26° NW 08:29:40 10° NNE
NPP 4.2 08:21:06 10° N 08:26:10 44° WNW 08:27:34 36° WSW
Cosmos 1455 3.2 08:24:57 10° NNW 08:27:35 33° WNW 08:27:35 33° WNW
Cosmos 2369 Rocket 2.6 08:27:48 10° NNW 08:33:22 64° ENE 08:38:54 10° SSE
Cosmos 2154 Rocket 4.0 08:27:13 10° NNW 08:33:30 67° W 08:36:42 30° SSW
SL-16 R/B 3.4 08:31:39 24° W 08:33:34 29° WNW 08:38:27 10° N
Cosmos 1656 Rocket 4.4 08:29:45 10° NNW 08:35:02 51° ENE 08:40:17 10° SE
Cosmos 1271 Rocket 2.7 08:33:53 10° NNW 08:37:41 62° W 08:38:06 57° SW
Meteor 1-21 Rocket 4.2 08:35:30 31° S 08:38:19 88° E 08:43:55 10° N
FALCON 9 R/B 4.4 08:14:21 10° WNW 08:41:18 45° SW 08:48:52 10° SSE
Cosmos 2228 2.9 08:39:41 10° N 08:44:03 79° W 08:45:55 33° S
BREEZE-M DEB (TANK) 3.0 08:42:54 32° WSW 08:45:13 80° NW 08:47:58 10° NE
SL-16 R/B 3.1 08:46:14 30° SW 08:48:19 38° W 08:54:05 10° NNW
Cosmos 1603 3.6 08:53:55 28° SSW 08:56:58 80° WNW 09:02:39 10° NNE
Cosmos 407 Rocket 4.0 08:52:28 10° N 08:57:44 61° ENE 09:02:53 10° SSE
Cosmos 1371 Rocket 4.2 08:55:16 21° S 08:58:43 65° ESE 09:03:51 10° NNE
Cosmos 2058 Rocket 4.3 08:56:42 10° N 09:00:51 41° E 09:04:58 10° SSE
MOS 1-B Rocket 4.2 08:58:37 10° SSE 09:04:10 66° ENE 09:09:50 10° N
COSMOS 2455 4.0 09:01:17 19° W 09:04:39 31° NW 09:09:56 10° N
Cosmos 1140 Rocket 3.7 08:59:54 10° NNW 09:05:10 75° ENE 09:10:23 10° SSE
CZ-2D R/B 3.9 09:02:04 10° NNW 09:05:18 16° WNW 09:07:28 13° W
GPS 2-04 Rocket1 2.8 09:05:26 36° SSW 09:06:09 42° SSE 09:09:28 10° E
SeaSat 1 4.3 09:03:33 10° NE 09:07:34 24° ESE 09:11:32 10° SSE
DNEPR-1 R/B 3.8 09:06:04 28° WSW 09:08:01 53° NW 09:12:26 10° NNE
Cosmos 1328 3.9 09:06:30 30° SW 09:08:12 55° W 09:12:07 10° N
Helios 1B rocket 2.3 09:10:17 10° NNE 09:14:21 90° W 09:17:16 18° SSW
Lacrosse 5 rocket 3.8 09:13:46 10° NW 09:15:26 12° NNW 09:17:09 10° N
Cosmos 1241 Rocket 4.4 09:12:18 19° SSW 09:16:51 88° ESE 09:23:05 10° NNE
Cosmos 2218 Rocket 4.0 09:12:15 10° N 09:18:32 88° E 09:24:52 10° S
Cosmos 1825 3.7 09:17:39 10° SSE 09:21:01 34° E 09:24:25 10° NNE
Cosmos 1606 Rocket 3.9 09:17:00 10° NNW 09:21:11 44° W 09:24:16 17° SSW
Cosmos 1023 Rocket 4.4 09:17:38 10° NNW 09:22:54 71° WSW 09:28:05 10° S
CZ-3 R/B 4.4 08:30:32 10° WSW 09:23:42 64° S 09:35:57 10° ESE
OAO 2 Rocket 3.5 09:21:48 20° WSW 09:25:08 55° S 09:29:56 10° E
Cosmos 1943 3.9 09:23:26 18° WSW 09:27:10 40° WNW 09:32:31 10° N
Helios 1A 4.4 09:28:06 18° WSW 09:29:03 19° W 09:32:06 10° NW
Cosmos 2181 Rocket 4.1 09:25:17 13° SSW 09:30:46 59° W 09:36:51 10° N
Cosmos 1959 Rocket 4.4 09:25:03 10° N 09:31:17 76° W 09:37:25 10° S
Cosmos 1624 Rocket 4.1 09:27:34 16° SSW 09:31:52 67° WNW 09:37:10 10° NNE
Meteor 1-11 4.3 09:26:55 11° SSW 09:32:27 71° W 09:38:14 10° N
SEDSat Delta rocket 4.5 09:28:00 16° WSW 09:33:02 45° S 09:39:22 10° ESE
Lacrosse 4 Rocket 1.7 09:31:42 12° SSW 09:35:37 68° ESE 09:39:49 10° NNE
ARIANE 5 R/B 2.8 09:30:55 10° NNE 09:35:57 69° ESE 09:40:55 10° S
Cosmos 2098 4.2 09:33:15 10° N 09:36:14 80° E 09:39:20 10° S
IRS-1C 4.2 09:30:55 10° NNE 09:36:17 84° ESE 09:41:36 10° SSW
Cosmos 1408 2.8 09:35:11 15° SSW 09:38:03 52° W 09:41:37 10° N
CBERS-1 4.5 09:34:27 10° N 09:39:19 45° WNW 09:43:43 12° SW
ATLAS 3B CENTAUR R/B 3.8 09:38:54 10° SSE 09:39:51 11° SE 09:40:54 10° SE
Cosmos 864 Rocket 4.5 09:34:45 10° NNW 09:40:49 63° W 09:46:51 10° S
Cosmos 1892 2.8 09:37:51 12° SSW 09:41:15 58° W 09:44:58 10° N
IDEFIX/ARIANE 42P 4.4 09:38:29 10° NNW 09:41:46 17° WNW 09:45:01 10° WSW
ADEOS II 4.1 09:40:37 10° NNW 09:43:04 13° WNW 09:45:31 10° W
Cosmos 2056 Rocket 3.8 09:39:27 13° SW 09:43:50 51° WNW 09:48:58 10° N
Okean 1-7 Rocket 3.5 09:39:51 10° S 09:44:16 81° W 09:48:41 10° N
Cosmos 1484 Rocket 4.2 09:42:18 10° NNE 09:45:56 37° E 09:49:35 10° SSE
FENGYUN 3A 3.8 09:42:10 10° N 09:47:29 62° WNW 09:52:47 10° SSW
ALOS 2.3 09:45:29 10° N 09:50:06 65° WNW 09:54:43 10° SSW
Cosmos 1602 Rocket 3.8 09:53:45 10° S 09:58:12 77° E 10:02:39 10° N
CZ-2C R/B 4.5 09:53:33 10° SE 09:58:13 35° ENE 10:02:58 10° N
Cosmos 1190 Rocket 4.2 09:55:28 10° NNW 10:00:36 53° WSW 10:05:44 10° S
ATLAS 2A CENTAUR R/B 3.9 09:53:31 10° WSW 10:07:45 40° SSW 10:13:36 10° ESE
CZ-2C R/B 2.9 10:04:12 10° N 10:09:02 45° WNW 10:13:42 10° SW
YAOGAN 6 4.1 10:06:17 10° NNE 10:09:40 37° E 10:13:03 10° SSE
